| time (UTC) | temp F | wind direction | speed MPH | gust MPH | rain 1hr in | rain 24hr in | rain mn in | humidity % | barometer mb |
| 20260904151004 | 86 | 7 | 5.0 | 12.0 | 0.00 | 0.00 | 0.00 | 36 | 1014.5 |
| 20260904150504 | 86 | 8 | 6.0 | 14.0 | 0.00 | 0.00 | 0.00 | 36 | 1014.4 |
| 20260904150005 | 86 | 27 | 7.0 | 14.0 | 0.00 | 0.00 | 0.00 | 36 | 1014.7 |
| 20260904145504 | 86 | 41 | 8.0 | 14.0 | 0.00 | 0.00 | 0.00 | 36 | 1014.4 |
| 20260904145005 | 86 | 36 | 8.0 | 14.0 | 0.00 | 0.00 | 0.00 | 36 | 1014.5 |
| 20260904144505 | 86 | 16 | 7.0 | 14.0 | 0.00 | 0.00 | 0.00 | 36 | 1014.4 |
| 20260904144004 | 87 | 9 | 7.0 | 13.0 | 0.00 | 0.00 | 0.00 | 36 | 1014.6 |
| 20260904142504 | 87 | 34 | 7.0 | 17.0 | 0.00 | 0.00 | 0.00 | 34 | 1014.5 |
| 20260904141504 | 87 | 35 | 6.0 | 16.0 | 0.00 | 0.00 | 0.00 | 34 | 1014.7 |
| 20260904140504 | 87 | 29 | 7.0 | 14.0 | 0.00 | 0.00 | 0.00 | 33 | 1014.5 |
| 20260904135505 | 87 | 17 | 8.0 | 18.0 | 0.00 | 0.00 | 0.00 | 33 | 1014.9 |
| 20260904135004 | 87 | 33 | 8.0 | 18.0 | 0.00 | 0.00 | 0.00 | 34 | 1014.5 |
| 20260904134006 | 87 | 352 | 8.0 | 14.0 | 0.00 | 0.00 | 0.00 | 34 | 1014.6 |
| 20260904133005 | 87 | 34 | 9.0 | 22.0 | 0.00 | 0.00 | 0.00 | 33 | 1014.7 |
| 20260904132504 | 87 | 358 | 10.0 | 22.0 | 0.00 | 0.00 | 0.00 | 33 | 1014.8 |
| 20260904132004 | 87 | 330 | 10.0 | 20.0 | 0.00 | 0.00 | 0.00 | 33 | 1014.9 |
| 20260904131505 | 87 | 10 | 9.0 | 20.0 | 0.00 | 0.00 | 0.00 | 33 | 1014.9 |
| 20260904131004 | 87 | 18 | 9.0 | 17.0 | 0.00 | 0.00 | 0.00 | 34 | 1014.6 |
| 20260904130005 | 87 | 31 | 9.0 | 17.0 | 0.00 | 0.00 | 0.00 | 35 | 1014.9 |
| 20260904125505 | 88 | 43 | 9.0 | 16.0 | 0.00 | 0.00 | 0.00 | 33 | 1014.6 |
| 20260904125005 | 88 | 36 | 8.0 | 16.0 | 0.00 | 0.00 | 0.00 | 33 | 1014.8 |
| 20260904124504 | 88 | 40 | 9.0 | 21.0 | 0.00 | 0.00 | 0.00 | 34 | 1014.8 |
| 20260904124004 | 88 | 52 | 9.0 | 21.0 | 0.00 | 0.00 | 0.00 | 33 | 1014.8 |
| 20260904123504 | 88 | 20 | 9.0 | 17.0 | 0.00 | 0.00 | 0.00 | 33 | 1014.7 |
| 20260904122505 | 88 | 31 | 11.0 | 18.0 | 0.00 | 0.00 | 0.00 | 34 | 1014.7 |
| 20260904121005 | 88 | 19 | 9.0 | 16.0 | 0.00 | 0.00 | 0.00 | 35 | 1014.9 |
| 20260904120005 | 87 | 29 | 7.0 | 16.0 | 0.00 | 0.00 | 0.00 | 36 | 1014.9 |
| 20260904115504 | 87 | 32 | 8.0 | 16.0 | 0.00 | 0.00 | 0.00 | 37 | 1015.0 |
| 20260904114505 | 87 | 33 | 8.0 | 18.0 | 0.00 | 0.00 | 0.00 | 37 | 1015.2 |
| 20260904114004 | 87 | 47 | 8.0 | 18.0 | 0.00 | 0.00 | 0.00 | 37 | 1015.1 |
| 20260904113504 | 87 | 50 | 8.0 | 16.0 | 0.00 | 0.00 | 0.00 | 36 | 1015.1 |
| 20260904112504 | 86 | 48 | 9.0 | 19.0 | 0.00 | 0.00 | 0.00 | 39 | 1015.1 |
| 20260904112004 | 86 | 49 | 8.0 | 19.0 | 0.00 | 0.00 | 0.00 | 40 | 1015.2 |
| 20260904111505 | 86 | 58 | 8.0 | 15.0 | 0.00 | 0.00 | 0.00 | 41 | 1015.2 |
| 20260904111004 | 86 | 48 | 7.0 | 14.0 | 0.00 | 0.00 | 0.00 | 41 | 1015.4 |
| 20260904110504 | 86 | 46 | 7.0 | 13.0 | 0.00 | 0.00 | 0.00 | 42 | 1015.3 |
| 20260904110005 | 85 | 58 | 7.0 | 14.0 | 0.00 | 0.00 | 0.00 | 42 | 1015.3 |
| 20260904105005 | 85 | 27 | 7.0 | 18.0 | 0.00 | 0.00 | 0.00 | 42 | 1015.3 |
| 20260904104504 | 85 | 34 | 7.0 | 14.0 | 0.00 | 0.00 | 0.00 | 43 | 1015.4 |
| 20260904104005 | 85 | 15 | 8.0 | 16.0 | 0.00 | 0.00 | 0.00 | 42 | 1015.5 |
| 20260904103504 | 85 | 28 | 8.0 | 21.0 | 0.00 | 0.00 | 0.00 | 42 | 1015.5 |
| 20260904103005 | 85 | 16 | 9.0 | 21.0 | 0.00 | 0.00 | 0.00 | 41 | 1015.4 |
| 20260904102504 | 85 | 6 | 8.0 | 19.0 | 0.00 | 0.00 | 0.00 | 40 | 1015.5 |
| 20260904102004 | 86 | 32 | 8.0 | 19.0 | 0.00 | 0.00 | 0.00 | 37 | 1015.7 |
| 20260904101505 | 85 | 34 | 7.0 | 17.0 | 0.00 | 0.00 | 0.00 | 35 | 1015.6 |
| 20260904100504 | 84 | 21 | 8.0 | 20.0 | 0.00 | 0.00 | 0.00 | 42 | 1015.4 |
| 20260904100005 | 85 | 18 | 8.0 | 19.0 | 0.00 | 0.00 | 0.00 | 40 | 1015.9 |
| 20260904095504 | 85 | 21 | 9.0 | 19.0 | 0.00 | 0.00 | 0.00 | 45 | 1015.7 |
| 20260904095004 | 85 | 15 | 11.0 | 24.0 | 0.00 | 0.00 | 0.00 | 44 | 1015.7 |
| 20260904094505 | 85 | 5 | 11.0 | 24.0 | 0.00 | 0.00 | 0.00 | 42 | 1015.7 |
| 20260904094004 | 85 | 11 | 11.0 | 22.0 | 0.00 | 0.00 | 0.00 | 43 | 1015.8 |
| 20260904093504 | 85 | 358 | 12.0 | 23.0 | 0.00 | 0.00 | 0.00 | 44 | 1015.7 |
| 20260904093005 | 86 | 330 | 11.0 | 23.0 | 0.00 | 0.00 | 0.00 | 43 | 1015.8 |
| 20260904092504 | 85 | 324 | 10.0 | 23.0 | 0.00 | 0.00 | 0.00 | 43 | 1015.6 |
| 20260904092004 | 85 | 330 | 12.0 | 23.0 | 0.00 | 0.00 | 0.00 | 45 | 1015.5 |
| 20260904091505 | 85 | 327 | 11.0 | 23.0 | 0.00 | 0.00 | 0.00 | 47 | 1015.4 |
| 20260904091004 | 85 | 331 | 12.0 | 22.0 | 0.00 | 0.00 | 0.00 | 46 | 1015.6 |
| 20260904090005 | 85 | 338 | 10.0 | 22.0 | 0.00 | 0.00 | 0.00 | 46 | 1015.5 |
| 20260904085504 | 85 | 325 | 11.0 | 22.0 | 0.00 | 0.00 | 0.00 | 47 | 1015.5 |
| 20260904085004 | 85 | 325 | 12.0 | 23.0 | 0.00 | 0.00 | 0.00 | 47 | 1015.6 |
| 20260904084505 | 85 | 333 | 13.0 | 23.0 | 0.00 | 0.00 | 0.00 | 46 | 1015.7 |
| 20260904084005 | 85 | 334 | 12.0 | 22.0 | 0.00 | 0.00 | 0.00 | 46 | 1015.5 |
| 20260904083005 | 85 | 342 | 10.0 | 24.0 | 0.00 | 0.00 | 0.00 | 46 | 1015.3 |
| 20260904082504 | 85 | 329 | 10.0 | 22.0 | 0.00 | 0.00 | 0.00 | 47 | 1015.5 |
| 20260904082004 | 85 | 323 | 10.0 | 20.0 | 0.00 | 0.00 | 0.00 | 46 | 1015.1 |
| 20260904081504 | 85 | 331 | 10.0 | 20.0 | 0.00 | 0.00 | 0.00 | 47 | 1015.3 |
| 20260904081004 | 84 | 343 | 9.0 | 20.0 | 0.00 | 0.00 | 0.00 | 46 | 1015.1 |
| 20260904080504 | 84 | 349 | 9.0 | 18.0 | 0.00 | 0.00 | 0.00 | 46 | 1015.4 |
| 20260904080005 | 84 | 337 | 9.0 | 18.0 | 0.00 | 0.00 | 0.00 | 48 | 1015.4 |
| 20260904075505 | 84 | 333 | 9.0 | 17.0 | 0.00 | 0.00 | 0.00 | 48 | 1015.2 |
| 20260904075004 | 84 | 9 | 9.0 | 19.0 | 0.00 | 0.00 | 0.00 | 49 | 1015.3 |
| 20260904074505 | 83 | 349 | 8.0 | 19.0 | 0.00 | 0.00 | 0.00 | 49 | 1015.2 |
| 20260904074005 | 83 | 317 | 10.0 | 21.0 | 0.00 | 0.00 | 0.00 | 51 | 1015.2 |
| 20260904073504 | 83 | 335 | 9.0 | 21.0 | 0.00 | 0.00 | 0.00 | 50 | 1015.4 |
| 20260904073005 | 83 | 328 | 9.0 | 17.0 | 0.00 | 0.00 | 0.00 | 51 | 1015.2 |
| 20260904072504 | 82 | 310 | 10.0 | 21.0 | 0.00 | 0.00 | 0.00 | 52 | 1015.1 |
| 20260904071005 | 82 | 326 | 8.0 | 15.0 | 0.00 | 0.00 | 0.00 | 52 | 1015.0 |
| 20260904070504 | 82 | 317 | 8.0 | 15.0 | 0.00 | 0.00 | 0.00 | 52 | 1015.4 |
| 20260904070005 | 82 | 337 | 7.0 | 15.0 | 0.00 | 0.00 | 0.00 | 52 | 1015.1 |
| 20260904065504 | 82 | 3 | 5.0 | 12.0 | 0.00 | 0.00 | 0.00 | 52 | 1015.0 |
| 20260904065004 | 82 | 329 | 6.0 | 14.0 | 0.00 | 0.00 | 0.00 | 53 | 1015.2 |
| 20260904064505 | 82 | 317 | 5.0 | 14.0 | 0.00 | 0.00 | 0.00 | 53 | 1015.0 |
| 20260904064005 | 81 | 286 | 3.0 | 11.0 | 0.00 | 0.00 | 0.00 | 53 | 1014.9 |
| 20260904063504 | 81 | 250 | 2.0 | 6.0 | 0.00 | 0.00 | 0.00 | 52 | 1015.0 |
| 20260904062504 | 80 | 231 | 1.0 | 5.0 | 0.00 | 0.00 | 0.00 | 53 | 1015.0 |
| 20260904061505 | 79 | 212 | 3.0 | 6.0 | 0.00 | 0.00 | 0.00 | 54 | 1014.9 |
| 20260904061004 | 79 | 216 | 2.0 | 6.0 | 0.00 | 0.00 | 0.00 | 54 | 1014.8 |
| 20260904060504 | 78 | 230 | 1.0 | 5.0 | 0.00 | 0.00 | 0.00 | 54 | 1014.9 |
| 20260904060005 | 78 | 227 | 2.0 | 6.0 | 0.00 | 0.00 | 0.00 | 55 | 1014.8 |
| 20260904055505 | 77 | 231 | 2.0 | 6.0 | 0.00 | 0.00 | 0.00 | 55 | 1014.8 |
| 20260904055004 | 77 | 234 | 2.0 | 6.0 | 0.00 | 0.00 | 0.00 | 56 | 1014.7 |
| 20260904054505 | 76 | 233 | 2.0 | 5.0 | 0.00 | 0.00 | 0.00 | 57 | 1014.9 |
| 20260904053504 | 75 | 240 | 2.0 | 7.0 | 0.00 | 0.00 | 0.00 | 58 | 1014.8 |
| 20260904053005 | 74 | 228 | 2.0 | 7.0 | 0.00 | 0.00 | 0.00 | 58 | 1014.9 |
| 20260904052505 | 74 | 227 | 2.0 | 7.0 | 0.00 | 0.00 | 0.00 | 59 | 1014.9 |
| 20260904052004 | 73 | 248 | 1.0 | 6.0 | 0.00 | 0.00 | 0.00 | 59 | 1014.7 |
| 20260904051505 | 73 | 239 | 3.0 | 7.0 | 0.00 | 0.00 | 0.00 | 59 | 1014.7 |
| 20260904051004 | 73 | 229 | 3.0 | 7.0 | 0.00 | 0.00 | 0.00 | 60 | 1014.7 |
| 20260904050504 | 72 | 225 | 2.0 | 7.0 | 0.00 | 0.00 | 0.00 | 60 | 1014.5 |
| 20260904050005 | 72 | 230 | 1.0 | 5.0 | 0.00 | 0.00 | 0.00 | 61 | 1015.0 |
| 20260904045504 | 72 | 231 | 2.0 | 5.0 | 0.00 | 0.00 | 0.00 | 61 | 1014.8 |
| 20260904045004 | 71 | 227 | 1.0 | 4.0 | 0.00 | 0.00 | 0.00 | 61 | 1014.9 |
| 20260904044504 | 71 | 218 | 0.0 | 3.0 | 0.00 | 0.00 | 0.00 | 62 | 1015.0 |
| 20260904044004 | 71 | 218 | 0.0 | 3.0 | 0.00 | 0.00 | 0.00 | 62 | 1014.8 |
| 20260904043005 | 70 | 155 | 0.0 | 2.0 | 0.00 | 0.00 | 0.00 | 61 | 1014.8 |
| 20260904042504 | 70 | 162 | 0.0 | 3.0 | 0.00 | 0.00 | 0.00 | 61 | 1014.6 |
| 20260904042004 | 70 | 200 | 0.0 | 3.0 | 0.00 | 0.00 | 0.00 | 62 | 1014.6 |
| 20260904041505 | 70 | 219 | 1.0 | 3.0 | 0.00 | 0.00 | 0.00 | 62 | 1014.6 |
| 20260904040504 | 70 | 204 | 1.0 | 3.0 | 0.00 | 0.00 | 0.00 | 62 | 1014.7 |
| 20260904040005 | 70 | 196 | 1.0 | 3.0 | 0.00 | 0.00 | 0.00 | 62 | 1014.6 |
| 20260904035504 | 70 | 213 | 1.0 | 3.0 | 0.00 | 0.00 | 0.00 | 62 | 1014.6 |
| 20260904035004 | 70 | 237 | 1.0 | 3.0 | 0.00 | 0.00 | 0.00 | 62 | 1014.7 |
| 20260904034004 | 70 | 238 | 1.0 | 4.0 | 0.00 | 0.00 | 0.00 | 61 | 1014.5 |
| 20260904033505 | 70 | 222 | 1.0 | 5.0 | 0.00 | 0.00 | 0.00 | 61 | 1014.1 |
| 20260904033005 | 71 | 219 | 2.0 | 5.0 | 0.00 | 0.00 | 0.00 | 61 | 1014.5 |
| 20260904032504 | 71 | 219 | 2.0 | 5.0 | 0.00 | 0.00 | 0.00 | 61 | 1014.4 |
| 20260904032004 | 71 | 221 | 2.0 | 5.0 | 0.00 | 0.00 | 0.00 | 61 | 1014.3 |
| 20260904031505 | 71 | 230 | 1.0 | 4.0 | 0.00 | 0.00 | 0.00 | 62 | 1014.3 |
| 20260904031004 | 71 | 252 | 1.0 | 4.0 | 0.00 | 0.00 | 0.00 | 62 | 1014.4 |
| 20260904030504 | 71 | 269 | 1.0 | 4.0 | 0.00 | 0.00 | 0.00 | 61 | 1014.2 |
| 20260904030006 | 71 | 259 | 1.0 | 4.0 | 0.00 | 0.00 | 0.00 | 61 | 1014.4 |
| 20260904025505 | 71 | 231 | 2.0 | 9.0 | 0.00 | 0.00 | 0.00 | 61 | 1014.3 |
| 20260904025005 | 71 | 228 | 3.0 | 9.0 | 0.00 | 0.00 | 0.00 | 60 | 1014.2 |
| 20260904024505 | 71 | 227 | 3.0 | 7.0 | 0.00 | 0.00 | 0.00 | 60 | 1014.4 |
| 20260904024004 | 71 | 214 | 4.0 | 7.0 | 0.00 | 0.00 | 0.00 | 60 | 1014.0 |
| 20260904023005 | 70 | 205 | 3.0 | 7.0 | 0.00 | 0.00 | 0.00 | 61 | 1014.3 |
| 20260904020005 | 70 | 218 | 1.0 | 5.0 | 0.00 | 0.00 | 0.00 | 59 | 1014.2 |
| 20260904015504 | 71 | 204 | 2.0 | 5.0 | 0.00 | 0.00 | 0.00 | 59 | 1014.1 |
| 20260904015005 | 70 | 223 | 2.0 | 5.0 | 0.00 | 0.00 | 0.00 | 59 | 1014.1 |
| 20260904014505 | 70 | 258 | 1.0 | 4.0 | 0.00 | 0.00 | 0.00 | 58 | 1014.1 |
| 20260904013504 | 70 | 237 | 1.0 | 4.0 | 0.00 | 0.00 | 0.00 | 58 | 1014.2 |
| 20260904013006 | 70 | 233 | 1.0 | 6.0 | 0.00 | 0.00 | 0.00 | 57 | 1014.2 |
| 20260904012504 | 71 | 222 | 2.0 | 6.0 | 0.00 | 0.00 | 0.00 | 57 | 1014.0 |
| 20260904012005 | 71 | 224 | 3.0 | 6.0 | 0.00 | 0.00 | 0.00 | 57 | 1014.0 |
| 20260904011505 | 71 | 225 | 3.0 | 6.0 | 0.00 | 0.00 | 0.00 | 57 | 1014.0 |
| 20260904011004 | 71 | 224 | 1.0 | 5.0 | 0.00 | 0.00 | 0.00 | 57 | 1014.0 |
| 20260904010504 | 71 | 223 | 0.0 | 3.0 | 0.00 | 0.00 | 0.00 | 57 | 1014.2 |
| 20260904010005 | 71 | 225 | 1.0 | 4.0 | 0.00 | 0.00 | 0.00 | 57 | 1014.2 |
| 20260904005504 | 71 | 225 | 1.0 | 4.0 | 0.00 | 0.00 | 0.00 | 57 | 1014.1 |
| 20260904005004 | 71 | 233 | 0.0 | 4.0 | 0.00 | 0.00 | 0.00 | 57 | 1014.0 |
| 20260904004504 | 71 | 245 | 1.0 | 4.0 | 0.00 | 0.00 | 0.00 | 56 | 1014.1 |
| 20260904004005 | 71 | 251 | 1.0 | 4.0 | 0.00 | 0.00 | 0.00 | 56 | 1014.0 |
| 20260904003504 | 71 | 1 | 0.0 | 4.0 | 0.00 | 0.00 | 0.00 | 55 | 1013.9 |
| 20260904003005 | 72 | 205 | 1.0 | 4.0 | 0.00 | 0.00 | 0.00 | 55 | 1014.1 |
| 20260904002504 | 72 | 212 | 1.0 | 4.0 | 0.00 | 0.00 | 0.00 | 55 | 1013.8 |
| 20260904002005 | 72 | 248 | 0.0 | 3.0 | 0.00 | 0.00 | 0.00 | 55 | 1013.9 |
| 20260904001505 | 72 | 246 | 0.0 | 3.0 | 0.00 | 0.00 | 0.00 | 55 | 1013.7 |
| 20260904000505 | 72 | 214 | 0.0 | 2.0 | 0.00 | 0.00 | 0.00 | 54 | 1013.9 |
| 20260904000004 | 72 | 204 | 0.0 | 2.0 | 0.00 | 0.00 | 0.00 | 54 | 1013.8 |
| 20260903235504 | 73 | 130 | 0.0 | 2.0 | 0.00 | 0.00 | 0.00 | 53 | 1014.0 |
| 20260903235005 | 73 | 135 | 0.0 | 2.0 | 0.00 | 0.00 | 0.00 | 53 | 1013.9 |
| 20260903234005 | 73 | 357 | 2.0 | 4.0 | 0.00 | 0.00 | 0.00 | 53 | 1013.9 |
| 20260903233504 | 74 | 304 | 2.0 | 5.0 | 0.00 | 0.00 | 0.00 | 53 | 1014.0 |
| 20260903233005 | 74 | 225 | 2.0 | 5.0 | 0.00 | 0.00 | 0.00 | 53 | 1013.9 |
| 20260903232505 | 74 | 225 | 2.0 | 4.0 | 0.00 | 0.00 | 0.00 | 53 | 1013.9 |
| 20260903232004 | 74 | 225 | 2.0 | 5.0 | 0.00 | 0.00 | 0.00 | 53 | 1014.0 |
| 20260903231504 | 74 | 225 | 1.0 | 5.0 | 0.00 | 0.00 | 0.00 | 53 | 1013.8 |
| 20260903231004 | 74 | 226 | 1.0 | 5.0 | 0.00 | 0.00 | 0.00 | 53 | 1013.8 |
| 20260903230504 | 74 | 216 | 1.0 | 5.0 | 0.00 | 0.00 | 0.00 | 53 | 1013.9 |
| 20260903230005 | 74 | 211 | 0.0 | 5.0 | 0.00 | 0.00 | 0.00 | 52 | 1014.0 |
| 20260903225504 | 74 | 211 | 0.0 | 3.0 | 0.00 | 0.00 | 0.00 | 52 | 1014.0 |
| 20260903225004 | 74 | 189 | 1.0 | 4.0 | 0.00 | 0.00 | 0.00 | 52 | 1013.9 |
| 20260903224505 | 74 | 198 | 1.0 | 4.0 | 0.00 | 0.00 | 0.00 | 52 | 1013.9 |
| 20260903224004 | 74 | 222 | 2.0 | 6.0 | 0.00 | 0.00 | 0.00 | 52 | 1013.8 |
| 20260903223005 | 74 | 224 | 3.0 | 8.0 | 0.00 | 0.00 | 0.00 | 52 | 1013.8 |
| 20260903222505 | 74 | 219 | 2.0 | 5.0 | 0.00 | 0.00 | 0.00 | 51 | 1013.9 |
| 20260903221505 | 75 | 221 | 3.0 | 7.0 | 0.00 | 0.00 | 0.00 | 50 | 1014.0 |
| 20260903221005 | 75 | 223 | 3.0 | 6.0 | 0.00 | 0.00 | 0.00 | 50 | 1014.0 |
| 20260903220504 | 75 | 225 | 3.0 | 6.0 | 0.00 | 0.00 | 0.00 | 50 | 1013.9 |
| 20260903220005 | 75 | 222 | 3.0 | 6.0 | 0.00 | 0.00 | 0.00 | 50 | 1014.0 |
| 20260903215504 | 75 | 218 | 2.0 | 6.0 | 0.00 | 0.00 | 0.00 | 49 | 1013.9 |
| 20260903215005 | 75 | 205 | 1.0 | 4.0 | 0.00 | 0.00 | 0.00 | 49 | 1013.8 |
| 20260903214005 | 76 | 208 | 1.0 | 6.0 | 0.00 | 0.00 | 0.00 | 48 | 1014.0 |
| 20260903213504 | 76 | 236 | 2.0 | 6.0 | 0.00 | 0.00 | 0.00 | 48 | 1013.9 |
| 20260903213004 | 76 | 237 | 2.0 | 6.0 | 0.00 | 0.00 | 0.00 | 47 | 1013.8 |
| 20260903212505 | 76 | 231 | 2.0 | 5.0 | 0.00 | 0.00 | 0.00 | 47 | 1013.6 |
| 20260903212004 | 77 | 238 | 2.0 | 5.0 | 0.00 | 0.00 | 0.00 | 47 | 1013.7 |
| 20260903211505 | 77 | 236 | 1.0 | 4.0 | 0.00 | 0.00 | 0.00 | 46 | 1013.8 |
| 20260903211004 | 77 | 248 | 1.0 | 4.0 | 0.00 | 0.00 | 0.00 | 46 | 1013.6 |
| 20260903210504 | 77 | 257 | 1.0 | 4.0 | 0.00 | 0.00 | 0.00 | 46 | 1013.7 |
| 20260903210006 | 77 | 254 | 1.0 | 4.0 | 0.00 | 0.00 | 0.00 | 45 | 1013.5 |
| 20260903205505 | 77 | 248 | 1.0 | 4.0 | 0.00 | 0.00 | 0.00 | 45 | 1013.5 |
| 20260903205004 | 77 | 237 | 1.0 | 4.0 | 0.00 | 0.00 | 0.00 | 44 | 1013.8 |
| 20260903204504 | 77 | 225 | 0.0 | 3.0 | 0.00 | 0.00 | 0.00 | 43 | 1013.7 |
| 20260903204004 | 77 | 238 | 1.0 | 4.0 | 0.00 | 0.00 | 0.00 | 43 | 1013.7 |
| 20260903203005 | 78 | 239 | 1.0 | 4.0 | 0.00 | 0.00 | 0.00 | 42 | 1013.4 |
| 20260903202005 | 78 | 233 | 2.0 | 5.0 | 0.00 | 0.00 | 0.00 | 41 | 1013.7 |
| 20260903201504 | 78 | 237 | 2.0 | 7.0 | 0.00 | 0.00 | 0.00 | 41 | 1013.7 |
| 20260903200505 | 79 | 225 | 3.0 | 8.0 | 0.00 | 0.00 | 0.00 | 42 | 1013.4 |
| 20260903200004 | 79 | 219 | 2.0 | 5.0 | 0.00 | 0.00 | 0.00 | 42 | 1013.5 |
| 20260903195504 | 79 | 217 | 1.0 | 5.0 | 0.00 | 0.00 | 0.00 | 42 | 1013.8 |
| 20260903194004 | 80 | 210 | 1.0 | 6.0 | 0.00 | 0.00 | 0.00 | 40 | 1013.7 |
| 20260903193504 | 80 | 277 | 1.0 | 6.0 | 0.00 | 0.00 | 0.00 | 39 | 1013.6 |
| 20260903193005 | 80 | 333 | 1.0 | 5.0 | 0.00 | 0.00 | 0.00 | 40 | 1013.8 |
| 20260903192504 | 80 | 331 | 2.0 | 4.0 | 0.00 | 0.00 | 0.00 | 40 | 1013.6 |
| 20260903192004 | 80 | 316 | 2.0 | 6.0 | 0.00 | 0.00 | 0.00 | 40 | 1013.8 |
| 20260903191005 | 80 | 321 | 5.0 | 10.0 | 0.00 | 0.00 | 0.00 | 41 | 1013.7 |
| 20260903190505 | 80 | 323 | 5.0 | 10.0 | 0.00 | 0.00 | 0.00 | 41 | 1013.6 |
| 20260903190004 | 80 | 323 | 5.0 | 9.0 | 0.00 | 0.00 | 0.00 | 41 | 1013.7 |
| 20260903185005 | 80 | 330 | 4.0 | 8.0 | 0.00 | 0.00 | 0.00 | 40 | 1013.6 |
| 20260903184004 | 80 | 335 | 5.0 | 10.0 | 0.00 | 0.00 | 0.00 | 39 | 1013.6 |
| 20260903183504 | 80 | 337 | 5.0 | 10.0 | 0.00 | 0.00 | 0.00 | 40 | 1013.1 |
| 20260903183005 | 80 | 334 | 5.0 | 10.0 | 0.00 | 0.00 | 0.00 | 42 | 1013.4 |
| 20260903182004 | 80 | 322 | 5.0 | 9.0 | 0.00 | 0.00 | 0.00 | 43 | 1013.2 |
| 20260903181505 | 80 | 307 | 5.0 | 9.0 | 0.00 | 0.00 | 0.00 | 43 | 1013.1 |
| 20260903181004 | 81 | 317 | 4.0 | 9.0 | 0.00 | 0.00 | 0.00 | 43 | 1012.9 |
| 20260903180504 | 81 | 339 | 3.0 | 7.0 | 0.00 | 0.00 | 0.00 | 43 | 1013.0 |
| 20260903180005 | 81 | 336 | 2.0 | 6.0 | 0.00 | 0.00 | 0.00 | 43 | 1013.1 |
| 20260903175504 | 81 | 340 | 2.0 | 5.0 | 0.00 | 0.00 | 0.00 | 43 | 1013.2 |
| 20260903175004 | 82 | 340 | 3.0 | 8.0 | 0.00 | 0.00 | 0.00 | 42 | 1012.9 |
| 20260903174505 | 82 | 340 | 3.0 | 8.0 | 0.00 | 0.00 | 0.00 | 42 | 1012.9 |
| 20260903174004 | 82 | 350 | 1.0 | 5.0 | 0.00 | 0.00 | 0.00 | 40 | 1013.1 |
| 20260903173504 | 82 | 355 | 2.0 | 5.0 | 0.00 | 0.00 | 0.00 | 39 | 1013.0 |
| 20260903173005 | 82 | 353 | 2.0 | 5.0 | 0.00 | 0.00 | 0.00 | 39 | 1012.9 |
| 20260903172504 | 82 | 342 | 2.0 | 5.0 | 0.00 | 0.00 | 0.00 | 39 | 1013.0 |
| 20260903172004 | 82 | 346 | 2.0 | 5.0 | 0.00 | 0.00 | 0.00 | 39 | 1013.0 |
| 20260903171505 | 83 | 7 | 3.0 | 7.0 | 0.00 | 0.00 | 0.00 | 39 | 1013.0 |
| 20260903171004 | 83 | 358 | 3.0 | 8.0 | 0.00 | 0.00 | 0.00 | 40 | 1012.9 |
| 20260903170005 | 84 | 330 | 3.0 | 8.0 | 0.00 | 0.00 | 0.00 | 40 | 1013.0 |
| 20260903165504 | 84 | 355 | 4.0 | 8.0 | 0.00 | 0.00 | 0.00 | 39 | 1012.9 |
| 20260903165004 | 84 | 355 | 4.0 | 8.0 | 0.00 | 0.00 | 0.00 | 39 | 1013.0 |
| 20260903164505 | 84 | 347 | 3.0 | 8.0 | 0.00 | 0.00 | 0.00 | 38 | 1012.7 |
| 20260903164004 | 85 | 346 | 3.0 | 8.0 | 0.00 | 0.00 | 0.00 | 36 | 1012.8 |
| 20260903163504 | 85 | 1 | 2.0 | 6.0 | 0.00 | 0.00 | 0.00 | 35 | 1012.5 |
| 20260903163005 | 85 | 349 | 3.0 | 7.0 | 0.00 | 0.00 | 0.00 | 34 | 1012.7 |
| 20260903162504 | 85 | 343 | 5.0 | 13.0 | 0.00 | 0.00 | 0.00 | 33 | 1012.7 |
| 20260903162004 | 85 | 354 | 6.0 | 13.0 | 0.00 | 0.00 | 0.00 | 33 | 1012.7 |
| 20260903161508 | 86 | 351 | 5.0 | 10.0 | 0.00 | 0.00 | 0.00 | 32 | 1012.6 |
| 20260903161004 | 86 | 348 | 5.0 | 11.0 | 0.00 | 0.00 | 0.00 | 32 | 1012.7 |
| 20260903160527 | 87 | 346 | 5.0 | 11.0 | 0.00 | 0.00 | 0.00 | 32 | 1012.7 |
| 20260903160008 | 87 | 345 | 5.0 | 9.0 | 0.00 | 0.00 | 0.00 | 32 | 1012.4 |
| 20260903155505 | 87 | 5 | 5.0 | 9.0 | 0.00 | 0.00 | 0.00 | 32 | 1012.3 |
| 20260903155004 | 88 | 36 | 3.0 | 8.0 | 0.00 | 0.00 | 0.00 | 32 | 1012.3 |
| 20260903154505 | 88 | 52 | 2.0 | 6.0 | 0.00 | 0.00 | 0.00 | 32 | 1012.4 |
| 20260903154004 | 88 | 68 | 3.0 | 9.0 | 0.00 | 0.00 | 0.00 | 32 | 1012.4 |
| 20260903153504 | 88 | 83 | 5.0 | 10.0 | 0.00 | 0.00 | 0.00 | 32 | 1012.3 |
| 20260903153005 | 88 | 90 | 5.0 | 10.0 | 0.00 | 0.00 | 0.00 | 33 | 1012.3 |
| 20260903152504 | 88 | 90 | 4.0 | 10.0 | 0.00 | 0.00 | 0.00 | 33 | 1012.2 |
| 20260903152005 | 88 | 87 | 4.0 | 10.0 | 0.00 | 0.00 | 0.00 | 33 | 1012.2 |
| 20260903151505 | 89 | 84 | 4.0 | 10.0 | 0.00 | 0.00 | 0.00 | 33 | 1012.2 |